[[{"header":{"parameterUnit":"m.s-1","parameterCategory":1,"la1":30.2991,"la2":30.254,"lo1":-89.0895,"lo2":-89.0444,"dy":0.0017,"dx":0.0017,"nx":28,"ny":28,"refTime":"2025-08-22T03:00:00:Z","depth":0,"parameterNumber":2,"parameterNumberName":"U-component_of_WINDS"},"data":[0,0,0,0,0,0,0,0,0,0,0,0,0,0,0,0,0,0,0,0,0,0,0,0,0,0,0,0,0,0,0,0,0,0,0,0,0,0,0,0,0,0,0,0,0,0,0,0,0,0,0,0,0,0,0,0,0,0,-0.3642,-0.3643,0,-0.3733,-0.3734,-0.3735,-0.378,-0.378,-0.3779,-0.3779,-0.3873,-0.3876,-0.3878,0,0,0,0,0,0,0,0,0,0,0,0,0,-0.3507,-0.3509,-0.3642,-0.3643,-0.3644,-0.3733,-0.3734,-0.3735,-0.378,-0.378,-0.3779,-0.3779,-0.3872,-0.3875,-0.3878,0,0,0,0,0,0,0,0,0,0,0,0,0,-0.3578,-0.351,-0.3641,-0.3677,-0.3681,-0.3732,-0.3734,-0.3735,-0.378,-0.378,-0.3779,-0.3779,-0.3871,-0.3875,-0.3879,-0.3902,0,0,-0.389,-0.3892,0,0,0,0,0,0,0,0,-0.3574,-0.3583,-0.367,-0.3674,-0.3679,-0.3745,-0.3721,-0.3791,-0.378,-0.3742,-0.3779,-0.3779,-0.383,-0.3838,-0.3855,-0.3906,-0.391,-0.3891,-0.3893,-0.3894,-0.3895,0,0,0,0,0,0,0,-0.3569,-0.358,-0.3678,-0.3672,-0.3677,-0.3688,-0.3698,-0.3734,-0.3785,-0.3745,-0.3749,-0.3759,-0.3833,-0.3851,-0.3857,-0.3912,-0.389,-0.3894,-0.3896,-0.3898,-0.3987,-0.3987,0,0,0,0,0,0,-0.3558,-0.3575,-0.3675,-0.368,-0.3626,-0.3691,-0.3702,-0.3724,-0.3785,-0.3794,-0.3759,-0.3761,-0.3845,-0.3853,-0.3861,-0.3892,-0.3894,-0.3898,-0.39,-0.3987,-0.3987,-0.3987,0,0,0,0,0,0,-0.3555,-0.3567,-0.3671,-0.3629,-0.3643,-0.3693,-0.3717,-0.3725,-0.3744,-0.3795,-0.3805,-0.3768,-0.3845,-0.3855,-0.3891,-0.3896,-0.39,-0.3903,-0.3987,-0.3987,-0.3987,-0.3955,0,0,0,0,0,0,-0.3551,-0.3566,-0.3575,-0.3629,-0.3645,-0.37,-0.3717,-0.3727,-0.375,-0.3753,-0.3806,-0.3815,-0.3846,-0.3885,-0.3895,-0.3901,-0.3906,-0.3987,-0.3987,-0.3987,-0.3955,-0.3954,-0.3952,0,0,0,0,0,-0.3546,-0.3562,-0.3575,-0.3587,-0.3658,-0.37,-0.371,-0.3745,-0.375,-0.376,-0.3793,-0.3813,-0.3894,-0.3889,-0.39,-0.3907,-0.3986,-0.3987,-0.3987,-0.3956,-0.3954,-0.3952,0,0,0,0,0,0,-0.3508,-0.357,-0.3585,-0.3619,-0.3654,-0.3708,-0.3721,-0.3741,-0.3776,-0.3777,-0.3819,-0.3831,-0.3863,-0.3889,-0.3882,-0.3933,-0.3942,-0.3945,-0.3915,-0.3913,-0.3911,-0.3905,-0.3909,0,0,0,0,0,-0.3504,-0.3533,-0.3585,-0.361,-0.3627,-0.3671,-0.3691,-0.3715,-0.3753,-0.3768,-0.3804,-0.384,-0.3873,-0.3895,-0.3928,-0.3959,-0.3971,-0.397,-0.3968,-0.3966,-0.3968,-0.3986,-0.3986,-0.3988,-0.3988,-0.3988,0,0,-0.3495,-0.3532,-0.3548,-0.3604,-0.3634,-0.3663,-0.3683,-0.3714,-0.3736,-0.3773,-0.3809,-0.3836,-0.3879,-0.3913,-0.3929,-0.3935,-0.397,-0.3967,-0.3965,-0.3968,-0.3986,-0.3986,-0.3986,-0.3988,-0.3988,-0.3988,0,0,-0.3494,-0.3525,-0.3549,-0.3578,-0.3623,-0.3652,-0.3658,-0.3709,-0.3728,-0.3765,-0.3793,-0.382,-0.3877,-0.3907,-0.3929,-0.3938,-0.3958,-0.3948,-0.3939,-0.3956,-0.3956,-0.3956,-0.3959,-0.396,-0.3949,-0.3949,-0.3949,0,-0.3477,-0.3523,-0.3559,-0.3588,-0.3611,-0.3645,-0.367,-0.3696,-0.375,-0.3765,-0.3771,-0.3843,-0.3875,-0.3915,-0.3917,-0.3935,-0.3942,-0.3942,-0.3953,-0.3954,-0.3954,-0.3958,-0.3959,-0.3948,-0.3948,-0.3948,-0.3948,0,-0.35,-0.3531,-0.3545,-0.3595,-0.362,-0.3647,-0.3687,-0.3708,-0.3729,-0.3757,-0.3794,-0.3833,-0.3875,-0.3886,-0.3908,-0.393,-0.3932,-0.3945,-0.3955,-0.3952,-0.3956,-0.3958,-0.3946,-0.3946,-0.3947,-0.3947,0,0,-0.3478,-0.3548,-0.3552,-0.3575,-0.3627,-0.3652,-0.368,-0.372,-0.3737,-0.3773,-0.3798,-0.3844,-0.3856,-0.3882,-0.3907,-0.3921,-0.3926,-0.3933,-0.3934,-0.393,-0.3953,-0.3943,-0.3944,-0.3939,-0.394,-0.394,-0.3949,0,-0.3485,-0.3536,-0.3569,-0.3607,-0.3636,-0.3668,-0.3692,-0.3727,-0.3754,-0.3782,-0.3812,-0.3845,-0.3858,-0.3873,-0.389,-0.3922,-0.3931,-0.3922,-0.3963,-0.3964,-0.3951,-0.3947,-0.3937,-0.3943,-0.3951,-0.3952,-0.3952,0,-0.3499,-0.3533,-0.3574,-0.3622,-0.3635,-0.3657,-0.3696,-0.3723,-0.3763,-0.3781,-0.3809,-0.3834,-0.3865,-0.3872,-0.3914,-0.3907,-0.3926,-0.3944,-0.3945,-0.3951,-0.3958,-0.3952,-0.3947,-0.3947,-0.3955,-0.3954,-0.3954,0,-0.3479,-0.3535,-0.3567,-0.3586,-0.3643,-0.3657,-0.3681,-0.372,-0.3743,-0.3777,-0.3792,-0.383,-0.3851,-0.3879,-0.3914,-0.3916,-0.3953,-0.3963,-0.3969,-0.3969,-0.3976,-0.3975,-0.3974,-0.3988,-0.3988,-0.3988,-0.3988,0,-0.3483,-0.3506,-0.3559,-0.3578,-0.3606,-0.3643,-0.3669,-0.3696,-0.3731,-0.3756,-0.3787,-0.381,-0.3854,-0.3882,-0.3909,-0.3941,-0.395,-0.3966,-0.3973,-0.3963,-0.3961,-0.3976,-0.3977,-0.3988,-0.3988,-0.3988,-0.3988,0,-0.3465,-0.3501,-0.3538,-0.3588,-0.3602,-0.362,-0.3663,-0.3683,-0.3711,-0.3743,-0.3752,-0.3797,-0.3832,-0.3869,-0.3917,-0.3935,-0.3965,-0.3975,-0.3952,-0.3956,-0.396,-0.3959,-0.3968,-0.3971,-0.3982,-0.3982,-0.3982,0,-0.3466,-0.3485,-0.3537,-0.3556,-0.3579,-0.3609,-0.3632,-0.3669,-0.3692,-0.3738,-0.3752,-0.3789,-0.3821,-0.3876,-0.3912,-0.3949,-0.396,-0.396,-0.3966,-0.3955,-0.396,-0.3958,-0.3961,-0.3959,-0.3959,-0.3958,-0.3958,0,-0.3462,-0.3479,-0.351,-0.3547,-0.3573,-0.3604,-0.3637,-0.3651,-0.3695,-0.3718,-0.3754,-0.3779,-0.3827,-0.3864,-0.3905,-0.393,-0.3951,-0.3956,-0.396,-0.395,-0.3936,-0.3944,-0.3947,-0.3956,-0.3956,-0.3956,-0.3956,-0.3956,-0.3454,-0.3472,-0.3511,-0.3545,-0.3573,-0.3603,-0.3624,-0.3654,-0.3685,-0.3727,-0.3747,-0.3783,-0.3822,-0.3879,-0.3903,-0.3932,-0.3939,-0.3943,-0.3945,-0.3945,-0.3943,-0.3931,-0.394,-0.394,-0.394,-0.394,-0.394,0,-0.3452,-0.3479,-0.3509,-0.3553,-0.358,-0.3597,-0.3633,-0.3654,-0.3686,-0.372,-0.375,-0.3791,-0.3827,-0.3866,-0.3903,-0.3919,-0.393,-0.3927,-0.3927,-0.3932,-0.3935,-0.3928,-0.3918,-0.3918,-0.3918,-0.3918,-0.3918,-0.3918,-0.3454,-0.3486,-0.3507,-0.3552,-0.3579,-0.3614,-0.3634,-0.3661,-0.3688,-0.3732,-0.3762,-0.3787,-0.3823,-0.3864,-0.3897,-0.3907,-0.392,-0.3915,-0.3928,-0.393,-0.3932,-0.3934,-0.3928,-0.3917,-0.3917,-0.3923,-0.3923,-0.3923]},{"header":{"parameterUnit":"m.s-1","parameterCategory":1,"la1":30.2991,"la2":30.254,"lo1":-89.0895,"lo2":-89.0444,"dy":0.0017,"dx":0.0017,"nx":28,"ny":28,"refTime":"2025-08-22T03:00:00:Z","depth":0,"parameterNumber":3,"parameterNumberName":"V-component_of_WINDS"},"data":[0,0,0,0,0,0,0,0,0,0,0,0,0,0,0,0,0,0,0,0,0,0,0,0,0,0,0,0,0,0,0,0,0,0,0,0,0,0,0,0,0,0,0,0,0,0,0,0,0,0,0,0,0,0,0,0,0,0,-0.8058,-0.8059,0,-0.8119,-0.812,-0.812,-0.8123,-0.8122,-0.8121,-0.8121,-0.8184,-0.8186,-0.8189,0,0,0,0,0,0,0,0,0,0,0,0,0,-0.7944,-0.7947,-0.8058,-0.8059,-0.8059,-0.8119,-0.812,-0.8121,-0.8123,-0.8122,-0.8121,-0.812,-0.8183,-0.8186,-0.8189,0,0,0,0,0,0,0,0,0,0,0,0,0,-0.7998,-0.7947,-0.8058,-0.8068,-0.8069,-0.8119,-0.812,-0.8121,-0.8123,-0.8122,-0.8121,-0.812,-0.8182,-0.8186,-0.8189,-0.8233,0,0,-0.82,-0.8202,0,0,0,0,0,0,0,0,-0.7995,-0.8003,-0.8066,-0.8067,-0.8069,-0.8112,-0.8103,-0.8159,-0.8123,-0.8103,-0.8121,-0.8119,-0.8161,-0.8166,-0.818,-0.8236,-0.8239,-0.8201,-0.8203,-0.8204,-0.8205,0,0,0,0,0,0,0,-0.7992,-0.8,-0.8082,-0.8066,-0.8069,-0.807,-0.8076,-0.8114,-0.8137,-0.8104,-0.8105,-0.8112,-0.8162,-0.8177,-0.8182,-0.824,-0.82,-0.8204,-0.8206,-0.8207,-0.8336,-0.8338,0,0,0,0,0,0,-0.7986,-0.7997,-0.808,-0.8084,-0.8029,-0.8073,-0.808,-0.8099,-0.8137,-0.8142,-0.8113,-0.8112,-0.8171,-0.8178,-0.8184,-0.8239,-0.8204,-0.8208,-0.821,-0.8335,-0.8337,-0.8338,0,0,0,0,0,0,-0.7983,-0.7993,-0.8078,-0.8041,-0.8051,-0.8076,-0.8098,-0.8101,-0.8116,-0.8143,-0.8148,-0.8124,-0.8171,-0.8179,-0.8221,-0.8241,-0.8209,-0.8212,-0.8334,-0.8336,-0.8337,-0.8348,0,0,0,0,0,0,-0.798,-0.7992,-0.8009,-0.8041,-0.8053,-0.8114,-0.8099,-0.8103,-0.8122,-0.8122,-0.8155,-0.8159,-0.817,-0.8216,-0.8225,-0.8245,-0.8215,-0.8332,-0.8334,-0.8337,-0.8346,-0.835,-0.8354,0,0,0,0,0,-0.7976,-0.8009,-0.801,-0.802,-0.8075,-0.8115,-0.8122,-0.8134,-0.8124,-0.8141,-0.8159,-0.8158,-0.8237,-0.822,-0.823,-0.8252,-0.8331,-0.8334,-0.8337,-0.8345,-0.835,-0.8354,0,0,0,0,0,0,-0.7979,-0.8014,-0.8014,-0.8059,-0.8084,-0.8115,-0.8137,-0.8139,-0.8167,-0.8165,-0.8179,-0.8187,-0.8229,-0.8245,-0.8225,-0.8297,-0.8283,-0.8288,-0.8286,-0.8291,-0.8294,-0.829,-0.8218,0,0,0,0,0,-0.7985,-0.8014,-0.8043,-0.808,-0.8092,-0.8112,-0.813,-0.8138,-0.8164,-0.8175,-0.8195,-0.8221,-0.8252,-0.8272,-0.8302,-0.8348,-0.8356,-0.8368,-0.8372,-0.8375,-0.838,-0.8407,-0.8413,-0.8348,-0.8348,-0.8348,0,0,-0.7997,-0.802,-0.8038,-0.8081,-0.8101,-0.8132,-0.8121,-0.8154,-0.8177,-0.818,-0.8221,-0.8237,-0.8267,-0.8312,-0.8333,-0.8326,-0.8399,-0.8379,-0.8381,-0.8384,-0.841,-0.8416,-0.8422,-0.835,-0.8349,-0.8349,0,0,-0.8036,-0.8055,-0.8089,-0.8109,-0.814,-0.8153,-0.8161,-0.8192,-0.8203,-0.8245,-0.8248,-0.8276,-0.8328,-0.835,-0.8367,-0.8415,-0.8416,-0.8424,-0.8444,-0.8471,-0.8476,-0.848,-0.8498,-0.8505,-0.8429,-0.8429,-0.8429,0,-0.8048,-0.8094,-0.8106,-0.8139,-0.8158,-0.8162,-0.8196,-0.8215,-0.8254,-0.8268,-0.826,-0.8327,-0.8347,-0.8398,-0.8409,-0.8423,-0.8434,-0.8421,-0.8474,-0.8479,-0.8483,-0.8501,-0.8507,-0.8429,-0.8429,-0.8429,-0.8429,0,-0.8107,-0.8139,-0.8162,-0.82,-0.8222,-0.8255,-0.8273,-0.8294,-0.8299,-0.8314,-0.8357,-0.8381,-0.8417,-0.8429,-0.8435,-0.8481,-0.8476,-0.8471,-0.8457,-0.849,-0.8507,-0.8513,-0.8431,-0.843,-0.843,-0.843,0,0,-0.8149,-0.8193,-0.8202,-0.8219,-0.8254,-0.8279,-0.8313,-0.8347,-0.8366,-0.8392,-0.8422,-0.8467,-0.8462,-0.8483,-0.8491,-0.8514,-0.8551,-0.8506,-0.8507,-0.8514,-0.8605,-0.8609,-0.8617,-0.8552,-0.8553,-0.8554,-0.8603,0,-0.8192,-0.8252,-0.8265,-0.8317,-0.8347,-0.8352,-0.8382,-0.8406,-0.8421,-0.8449,-0.8465,-0.8497,-0.8488,-0.8501,-0.8523,-0.8542,-0.857,-0.8538,-0.858,-0.8582,-0.8573,-0.8625,-0.863,-0.8674,-0.8609,-0.861,-0.8611,0,-0.825,-0.8279,-0.8334,-0.8366,-0.8379,-0.8405,-0.8439,-0.8465,-0.8494,-0.8503,-0.8526,-0.8532,-0.8568,-0.8552,-0.8602,-0.8581,-0.8599,-0.861,-0.8612,-0.8617,-0.8599,-0.8632,-0.8689,-0.8696,-0.8621,-0.862,-0.862,0,-0.8277,-0.8329,-0.8369,-0.8384,-0.8421,-0.844,-0.8456,-0.8484,-0.8504,-0.8533,-0.8547,-0.858,-0.8598,-0.8623,-0.8638,-0.8625,-0.8689,-0.8673,-0.8698,-0.8698,-0.8712,-0.8711,-0.8772,-0.8721,-0.8721,-0.8721,-0.8721,0,-0.8324,-0.8358,-0.8382,-0.8406,-0.8445,-0.8459,-0.8497,-0.8513,-0.8538,-0.8567,-0.8572,-0.8599,-0.8617,-0.8646,-0.8658,-0.8699,-0.8707,-0.8716,-0.8719,-0.8716,-0.8715,-0.8729,-0.8726,-0.8723,-0.8723,-0.8722,-0.8722,0,-0.836,-0.8377,-0.8421,-0.8453,-0.8462,-0.8489,-0.8517,-0.8542,-0.8556,-0.8593,-0.8602,-0.8625,-0.8661,-0.8678,-0.8721,-0.873,-0.8776,-0.8777,-0.8767,-0.8768,-0.8792,-0.879,-0.8865,-0.8876,-0.8817,-0.8818,-0.8818,0,-0.8389,-0.8416,-0.8451,-0.847,-0.8487,-0.8518,-0.8539,-0.8554,-0.8576,-0.8611,-0.8632,-0.8667,-0.8696,-0.8753,-0.8774,-0.8808,-0.881,-0.8834,-0.8815,-0.8811,-0.8811,-0.881,-0.8813,-0.8837,-0.8838,-0.8838,-0.8839,0,-0.844,-0.8447,-0.8477,-0.851,-0.8535,-0.8562,-0.8589,-0.8604,-0.8624,-0.8648,-0.8684,-0.8707,-0.8752,-0.8787,-0.8823,-0.884,-0.8843,-0.8844,-0.8852,-0.885,-0.8844,-0.8848,-0.8777,-0.8843,-0.8842,-0.8842,-0.8842,-0.8842,-0.8474,-0.8498,-0.8527,-0.8561,-0.8582,-0.8607,-0.8632,-0.865,-0.868,-0.8718,-0.8725,-0.8764,-0.8793,-0.8841,-0.8859,-0.889,-0.8885,-0.8896,-0.8899,-0.8901,-0.8903,-0.8838,-0.8897,-0.8896,-0.8896,-0.8896,-0.8896,0,-0.8526,-0.8545,-0.8576,-0.8613,-0.8639,-0.8639,-0.8669,-0.8691,-0.8725,-0.8752,-0.878,-0.8823,-0.8857,-0.8881,-0.8917,-0.8937,-0.8939,-0.8946,-0.8945,-0.8949,-0.8905,-0.8896,-0.8944,-0.8944,-0.8944,-0.8944,-0.8944,-0.8944,-0.8556,-0.8598,-0.8609,-0.8661,-0.868,-0.8718,-0.8735,-0.8758,-0.8779,-0.8826,-0.8855,-0.887,-0.8896,-0.8934,-0.8966,-0.8972,-0.8986,-0.8992,-0.8999,-0.8957,-0.8952,-0.8948,-0.8939,-0.8995,-0.8995,-0.904,-0.9041,-0.9041]}]]